Tracking 22441 objects as of 28-Feb-2021
HD Live streaming from Space Station
objects crossing your sky now

FREGAT DEB

Track FREGAT DEB now!
10-day predictions


NORAD ID: 46412
Int'l Code: 2011-037LR
Perigee: 453.1 km
Apogee: 5,085.5 km
Inclination: 50.9 °
Period: 144.9 minutes
Semi major axis: 9140 km
RCS: Unknown
Launch date: July 18, 2011
Source: Commonwealth of Independent States (former USSR) (CIS)
Launch site: TYURATAM MISSILE AND SPACE COMPLEX (TTMTR)

Note: This is SATELLITE DEBRIS
aabbcc
Your satellite tracking list
Your tracking list is empty




NASA's NSSDC Master Catalog

Two Line Element Set (TLE):
1 46412U 11037LT  20252.30614214 +.00354310 +00000-0 +11622+0 0  9998
2 46412 050.8758 213.8848 2534072 163.5002 206.6613 09.93486686000706
Source of the keplerian elements: AFSPC